Jackpot Winner Domino

Jackpot hanya dapat di beli di awal sebelum periode tersebut berjalan dan jika berhasil maka anda dapat melihat di sisi kiri bawah atau kiri atas akan terdapat notifikasi bahwa jackpot anda berhasil di beli.

Jika anda membeli jackpot di tengah permainan maka pembelian jackpot akan berlaku untuk periode selanjutnya.

Ikutilah global jackpot yang tersedia di system kami, dengan system jackpot terbaru dan pertama di indonesia, anda dapat membeli jackpot dengan harga 100 rupiah saja dan menangkan hadiahnya hingga puluhan juta rupiah.

Jackpot bukanlah suatu keharusan untuk dibeli, namun kami memberikan suatu fitur tambahan untuk member tercinta dari www.npselalu.net.

Terdapat tiga pilihan harga jackpot yang bisa anda beli yaitu :100,500 dan 1000 rupiah.

Hadiah dari Multi jackpot system www.npselalu.net

  1. Murni Kecil x 50 harga jackpot yang anda beli.
      (contoH:anda membeli 1000 maka:1000 X 50 = 50.000)
  2. Murni Besar x 50 harga jackpot yang anda beli
      (contoH:anda membeli 1000 maka:1000 X 50 = 50.000)
  3. BALAK x 100 harga jackpot yang anda beli
      (contoH:anda membeli 1000 maka:1000 X 100 = 100.000)
  4. ENAM DEWA x 6666 harga jackpot yang anda beli
      (contoH:anda membeli 1000 maka:1000 X 6666 = 6.666.000)

Demikian adalah penjelasan dari Multi Jackpot www.npselalu.net terima kasih dan selamat bermain salam hoki dari kami


Jackpot Winner

TOP ENAM DEWA
No. Tanggal Nama Price Win
1 14/12 12:15 LOBET6666 murni enam 6,666,000
2 14/12 08:46 SAUT_87 murni enam 666,600
3 14/12 07:51 H4RI566 murni enam 3,333,000
4 14/12 07:36 78AGSCVNFJ murni enam 6,666,000
5 14/12 03:51 F5831F72 murni enam 666,600
TOP BALAK
No. Tanggal Nama Price Win
1 14/12 13:45 MANGUN1 balak 50,000
2 14/12 13:43 ANILAHSA16 balak 100,000
3 14/12 13:38 DIK100 balak 100,000
4 14/12 13:32 FRABU_25 balak 10,000
5 14/12 13:32 CHUNGBAA balak 100,000
LATEST JACKPOT
No. Tanggal Nama Price Win
1 14/12 13:50 LEUWID4UN murni besar 25,000
2 14/12 13:50 RIKO53 murni besar 50,000
3 14/12 13:49 K083R murni besar 25,000
4 14/12 13:47 ROVARO murni besar 25,000
5 14/12 13:47 VGOFORTE01 murni besar 25,000
6 14/12 13:47 JAKRUT1 murni kecil 50,000
7 14/12 13:47 BALQIS2014 murni besar 5,000
8 14/12 13:47 FITRI919 murni kecil 25,000
9 14/12 13:46 SUDARS0N0 lucky99 10,000
10 14/12 13:46 VHY86 murni besar 50,000
11 14/12 13:46 HM251 murni kecil 50,000
12 14/12 13:45 MANGUN1 balak 50,000
13 14/12 13:43 REGEZ34 lucky99 10,000
14 14/12 13:43 ANILAHSA16 balak 100,000
15 14/12 13:43 PCK4KAMBO99 murni kecil 50,000
16 14/12 13:42 T4RGET33 murni kecil 5,000
17 14/12 13:42 KULAWU789 murni kecil 50,000
18 14/12 13:42 CURUZ87 murni kecil 50,000
19 14/12 13:42 ALINSHME lucky99 200,000
20 14/12 13:41 C2B6F5A2 murni besar 5,000
21 14/12 13:39 BATAX303 murni kecil 50,000
22 14/12 13:38 DIK100 balak 100,000
23 14/12 13:38 CINENGKE90 murni kecil 5,000
24 14/12 13:38 DARGO13 murni kecil 50,000
25 14/12 13:38 RANCE murni kecil 25,000
26 14/12 13:36 EC2AABA2 lucky99 2,500
27 14/12 13:36 DORE1020 murni kecil 50,000
28 14/12 13:36 DRAJAT06 murni besar 25,000
29 14/12 13:35 DRAJAT06 murni kecil 25,000
30 14/12 13:35 JANCOOK1 lucky99 350,000
31 14/12 13:34 PUANGRAFI murni kecil 50,000
32 14/12 13:33 TEMPOYAK00 murni besar 25,000
33 14/12 13:33 NONTUAH123 murni besar 5,000
34 14/12 13:32 FBUKI16 murni besar 50,000
35 14/12 13:32 BABAYO52 murni besar 50,000
36 14/12 13:32 FRABU_25 balak 10,000
37 14/12 13:32 CHUNGBAA balak 100,000
38 14/12 13:31 MEMPOR7_ murni kecil 5,000
39 14/12 13:31 VGOFORTE01 murni besar 25,000
40 14/12 13:31 NIRIBAS murni besar 25,000
41 14/12 13:31 DOEL3071 balak 100,000
42 14/12 13:30 KANCUT001 murni besar 25,000
43 14/12 13:30 E6D9BD6F murni kecil 5,000
44 14/12 13:29 FETZU murni besar 50,000
45 14/12 13:29 AMIEN8788 balak 100,000
46 14/12 13:29 WIRO8212 balak 100,000
47 14/12 13:28 VHY86 murni besar 50,000
48 14/12 13:28 MR_ALLADIN murni besar 50,000
49 14/12 13:28 SAYANK2 murni besar 25,000
50 14/12 13:27 G4123NG lucky99 50,000
Dewa.FM